Regional Weather Roundup
Issued by NWS Charleston, SC

Current Version | Previous Version | Text Only | Print | Product List | Glossary Off
Versions: 1 2 3 4 5 6 7 8 9 10 11 12 13 14 15 16 17 18 19 20 21 22 23 24 25 26 27 28 29 30 31 32 33 34 35 36 37 38 39 40 41 42 43 44 45 46 47 48 49 50

000
ASUS42 KCHS 230810
RWRCHS
REGIONAL WEATHER ROUNDUP
NATIONAL WEATHER SERVICE CHARLESTON SC
400 AM EDT SAT AUG 23 2014

NOTE: "FAIR" INDICATES FEW OR NO CLOUDS BELOW 12,000 FEET WITH NO
SIGNIFICANT WEATHER AND/OR OBSTRUCTIONS TO VISIBILITY.

NOT ALL STATIONS ARE QUALITY CONTROLLED BY THE NATIONAL
WEATHER SERVICE. USE DATA WITH CAUTION...ESPECIALLY
DEWPOINT OBSERVATIONS.

SCZ027-030-031-034>040-042>050-230900-
...SOUTH CAROLINA...

CITY           SKY/WX    TMP DP  RH WIND       PRES   REMARKS
N CHARLESTON   CLEAR     83  77  82 SW8       29.91F HX  92
WATERFRONT PRK   N/A     84 N/A N/A SW5         N/A
FORT JOHNSON   NOT AVBL
MOUNT PLEASANT FAIR      82  79  89 SW6       29.91S HX  93
JOHNS ISLAND   SUNNY     82  81  94 CALM      29.91F HX  95
PINOPOLIS        N/A     82  79  89 SW8       29.83S HX  93
MONCKS CORNER    N/A     81  79  94 SW5       29.90F
SUMMERVILLE    FAIR      79  79 100 CALM      29.91F
BEAUFORT MCAS  CLEAR     80  75  84 W5        29.92F
BEAUFORT ARPT  FAIR      82  77  83 SW5       29.91F HX  91
HILTON HEAD IS CLEAR     81  75  83 S5        29.93F
GEORGETOWN     NOT AVBL
WALTERBORO     SUNNY     79 N/A N/A SW3       29.92F
ORANGEBURG     CLEAR     75  72  90 SW5       29.91F
BARNWELL       FAIR      75  72  88 CALM      29.93F
AIKEN          FAIR      75  72  88 CALM      29.97S
MANNING        FAIR      75 N/A N/A CALM      29.90F
KINGSTREE      NOT AVBL
COLUMBIA       CLEAR     77  70  79 CALM      29.90F
SUMTER         PTCLDY    76  73  90 NE2       29.89F
FLORENCE       MOCLDY    78  74  87 NE8       29.90F
MYRTLE BEACH   CLEAR     82  75  78 CALM      29.90F
N MYRTLE BEACH CLEAR     81  78  91 CALM      29.89F

$$

GAZ063-065-086>088-099>101-113>116-118-119-134-136>141-150-230900-
...GEORGIA...

CITY           SKY/WX    TMP DP  RH WIND       PRES   REMARKS
SAVANNAH ARPT  CLEAR     80  74  81 W3        29.93F
HUNTER AAF     CLEAR     80  74  81 SW2       29.92S
FORT STEWART   CLEAR     79  74  83 CALM      29.93S HAZE
STATESBORO     NOT AVBL
SYLVANIA       SUNNY     75  74  98 CALM      29.94S
CLAXTON        FAIR     N/A N/A N/A CALM      29.94S
THOMSON        CLEAR     74  74 100 CALM      29.99F
AUGUSTA-BUSH   CLEAR     73  71  93 CALM      29.92F
AUGUSTA-DANIEL CLEAR     83  70  64 W7        29.95F
SWAINSBORO     FAIR      77  75  94 CALM      29.96F
VIDALIA          N/A     79  73  83 CALM      29.95F
ALMA           CLEAR     76  72  87 CALM      29.95F
WAYCROSS       CLEAR     81  75  84 CALM      29.95F
JESUP            N/A     79  77  94 CALM      29.94F
BRUNSWICK      CLEAR     81  72  74 W5        29.95S
SAINT SIMONS   CLEAR     80  74  81 SW8       29.94F

$$

SCZ027-028-034-036>038-045-046-048>050-GAZ119-141-230900-
...LAKE AND SUPPLEMENTAL COASTAL OBSERVATIONS...

STATION/POSITION TIME  TEMP    WIND        PRES    WAVE   SWELL
                       AIR SEA DIR/SP/G            HT/PER HT/PER/DIR
                 (UTC) (F)     (DEG/KT/KT) (MB)    (FT/S) (FT/S/D)
UPR LAKE MARION  NOT AVBL
WINYAH BAY       0700   82     240/  4     1013.0S
LAKE MURRAY      0700   82     290/  3/  5 1012.5F
ACE BASIN NERRS  0700   80        CALM     1014.0S
FORT PULASKI     0800   81     210/  4/  5 1013.6F
SAPELO ISLAND    0700   81     220/  5     1014.0F

$$

ANZ835-935-AMZ111-154-330-350-352-354-374-450-454-472-230900-
...C-MAN AND BUOY OBSERVATIONS...

STATION/POSITION TIME  TEMP    WIND        PRES    WAVE   SWELL
                       AIR SEA DIR/SP/G            HT/PER HT/PER/DIR
                 (UTC) (F)     (DEG/KT/KT) (MB)    (FT/S) (FT/S/D)
FOLLY BEACH CMAN 0700   85     230/  9/ 12 1013.4F
BUOY 41004       0800   85 85  220/ 12/ 16 1012.2F   2/ 4   2/ 9
BUOY 41008       0800   86 85  230/ 12/ 14 1013.4F   1/ 3
5E ST. MARYS GA  0800      83                N/A     1/ 9
FRYING PAN BUOY  NOT AVBL
BUOY 41025       0800   78     340/  8/ 10 1012.9F   2/ 7   2/ 60/ 7
CAPE LOOKOUT NC  0700   80      40/  4/  5 1013.1R
BUOY 41002       0658   82 82  260/ 16/ 17 1013.7    3/ 5   2/110/ 7
BUOY 41010       0800   84 86  210/  8/ 10 1014.6S   2/ 9   2/ 80/ 9
BUOY 41012       NOT AVBL
ST AUGUSTINE FL  0800   77     250/  5/  6 1015.3F
CAPERS NEARSHORE 0700   86     240/ 14/ 16   N/A
FRIPP NEARSHORE  NOT AVBL


$$


USA.gov is the U.S. government's official web portal to all federal, state and local government web resources and services.